Powrót do katalogu

STARLINK-38124

AktywnyŁącznośćVLEO
NORAD 100008·PAYLOAD·🇺🇸 United States

Wystrzelony Jul 14, 2026 z Vandenberg Space Force Base

Loading…

Następne Przeloty (najbliższe 24 godziny)

TLE

ŚwieżeSource: Space-Track

Epoka: Sep 14, 2026, 22:55 UTC

1 A0008U 26160H   26257.95524522 -.00882416  00000-0 -77147-2 0  9998
2 A0008  70.0007 210.8272 0004346 261.2990  98.7714 15.71204858 11113

Śledź STARLINK-38124 w czasie rzeczywistym z AllMySat

Download on the App Store